sat.trackr.live / text

‹ back to catalog

STARLINK-35777

NORAD 66975 · 2025-288S

PAYLOAD ACTIVE UNKNOWN

§ Identity

Operator
Country
US
Launch date
2025-12-08
Launch site
AFETR
Launch vehicle
Mass (kg)
RCS (m²)

Purposes: comms

External: N2YO · Heavens-Above · Gunter

§ Orbital elements

Epoch: 2026-09-20T08:26:46.046976Z

Period
94.27 min
Inclination
43.0035°
Eccentricity
0.0001382
Mean motion
15.27584844 rev/d
Perigee alt
482.1 km
Apogee alt
484.0 km
Semi-major
6,861.2 km
B*
5.5026e-4
RAAN
4.5214°
Arg perigee
252.2875°
Mean anomaly
107.7826°
Rev number
4,505

§ Raw data

STARLINK-357771 66975U 25288S   26263.35192184  .00014913  00000+0  55026-3 0  99982 66975  43.0035   4.5214 0001382 252.2875 107.7826 15.27584844 45054

JSON: /api/v1/satellites/66975 · /tle

For live sub-satellite position, see the globe view (requires WebGL).

§ Visibility from observer

Set your observer location to see the next 7 days of passes ≥ 10°. The values pass through the URL so the page stays shareable.

No JS? Fill the form by hand. The geolocation button needs JavaScript.